[Iaude] MPEC L128: 2024 LC4 [a=2.34,e=0.63,i=17.3,H=23.0]

mpec at cfa.harvard.edu mpec at cfa.harvard.edu
Wed Jun 12 21:17:47 EDT 2024


M.P.E.C. 2024-L128                                Issued 2024 June 13, 01:16 UT

     The Minor Planet Electronic Circulars contain information on unusual
         minor planets, routine data on comets and natural satellites,
         and occasional editorial announcements.  They are published
    on behalf of Division F of the International Astronomical Union by the
          Minor Planet Center, Smithsonian Astrophysical Observatory,
                          Cambridge, MA 02138, U.S.A.
			  
             Prepared using the Tamkin Foundation Computer Network

                              MPC at CFA.HARVARD.EDU
            URL https://www.minorplanetcenter.net/    ISSN 1523-6714

                                    2024 LC4                                    


Observations:
     K24L04C  C2024 05 29.50387016 47 23.727+31 35 28.10         21.90GVEL128F51
     K24L04C  C2024 05 29.52580116 47 23.099+31 36 16.01         22.36GVEL128F51
     K24L04C  C2024 05 29.53683816 47 22.792+31 36 40.15         21.99GVEL128F51
     K24L04C  C2024 06 05.34722516 44 57.237+36 29 51.12         21.94GVEL128F52
     K24L04C  C2024 06 05.35861116 44 56.670+36 30 26.63         21.86GVEL128F52
     K24L04C  C2024 06 05.36992516 44 56.113+36 31 01.86         21.94GVEL128F52
     K24L04C*1C2024 06 12.30300716 39 46.573+44 07 27.41         21.00GVEL128G96
     K24L04C 1C2024 06 12.30825916 39 46.062+44 07 54.62         20.96GVEL128G96
     K24L04C 1C2024 06 12.31347916 39 45.479+44 08 23.10               VEL128G96
     K24L04C 1C2024 06 12.31870216 39 45.072+44 08 48.84         20.73GVEL128G96
     K24L04C  C2024 06 12.35672416 39 41.375+44 12 01.76         20.9 GVEL128H01
     K24L04C  C2024 06 12.36152216 39 40.947+44 12 26.40         21.1 GVEL128H01
     K24L04C  C2024 06 12.37087316 39 40.112+44 13 14.20         21.3 GVEL128H01
     K24L04C  C2024 06 12.37738516 39 39.537+44 13 47.58         20.8 GVEL128H01
     K24L04C KC2024 06 12.40924716 39 36.922+44 16 33.02         20.91GVEL128I52
     K24L04C KC2024 06 12.41253816 39 36.680+44 16 50.23         21.29GVEL128I52
     K24L04C KC2024 06 12.41583416 39 36.342+44 17 06.65         20.87GVEL128I52
     K24L04C KC2024 06 12.41911916 39 36.101+44 17 23.68         20.75GVEL128I52
     K24L04C KB2024 06 12.98563116 39 00.10 +45 08 34.8          20.6 GXEL128I93
     K24L04C KB2024 06 12.99440816 38 59.24 +45 09 23.3          20.6 GXEL128I93
     K24L04C KB2024 06 13.00296516 38 58.44 +45 10 10.8          20.3 GXEL128I93

Observer details:
F51 Pan-STARRS 1, Haleakala.  Observers J. Herman, T. Lowe, P. Minguez, A.
    Schultz, I. Smith.  Measurers K. Chambers, T. de Boer, J. Fairlamb, H.
    Gao, M. Huber, C.-C. Lin, E. Magnier, Y. Ramanjooloo, R. Wainscoat, R.
    Weryk.  1.8-m Ritchey-Chretien + CCD.
F52 Pan-STARRS 2, Haleakala.  Observers J. Herman, T. Lowe, P. Minguez, A.
    Schultz, I. Smith.  Measurers K. Chambers, T. de Boer, J. Fairlamb, H.
    Gao, M. Huber, C.-C. Lin, E. Magnier, Y. Ramanjooloo, R. Wainscoat, R.
    Weryk.  1.8-m Ritchey-Chretien + CCD.
G96 Mt. Lemmon Survey.  Observer G. J. Leonard.  Measurers T. Beuden, V. F.
    Carvajal, D. Fay, J. B. Fazekas, D. C. Fuls, A. R. Gibbs, A. D. Grauer, H.
    Groeller, J. K. Hogan, R. A. Kowalski, S. M. Larson, G. J. Leonard, D.
    Rankin, R. L. Seaman, F. C. Shelly, K. W. Wierzchos.  1.5-m reflector +
    10K CCD.
H01 Magdalena Ridge Observatory, Socorro.  Observers W. H. Ryan, E. V. Ryan.
    Measurer W. H. Ryan.  2.4-m f/8.9 Ritchey-Chretien + CCD.
I52 Steward Observatory, Mt. Lemmon Station.  Observer J. B. Fazekas.
    Measurers T. Beuden, V. F. Carvajal, D. Fay, J. B. Fazekas, D. C. Fuls, A.
    R. Gibbs, A. D. Grauer, H. Groeller, J. K. Hogan, R. A. Kowalski, S. M.
    Larson, G. J. Leonard, D. Rankin, R. L. Seaman, F. C. Shelly, K. W.
    Wierzchos.  1.0-m prime focus + CCD.
I93 St Pardon de Conques.  Observer F. Losse.  0.40-m f/3.7 reflector + CMO.

Orbital elements:
2024 LC4                                                 Earth MOID = 0.0604 AU
Epoch 2024 Mar. 31.0 TT = JDT 2460400.5                 MPC                     
M 327.39605              (2000.0)            P               Q                  
n   0.27509392     Peri.  214.47800     +0.72771472     +0.62252947             
a   2.3414347      Node   104.32841     -0.54315350     +0.77937636             
e   0.6267507      Incl.   17.28630     -0.41882641     +0.07091929             
P   3.58           H   23.03          G   0.15           U   8                  
Residuals in seconds of arc
240529 F51  0.1+  0.1-    240612 G96  0.0   0.1-    240612 I52  0.0   0.3-
240529 F51  0.0   0.0     240612 G96 (1.1-  1.4+)   240612 I52  0.4+  0.1+
240529 F51  0.0   0.1+    240612 G96  0.2-  0.2+    240612 I52  0.2-  0.2-
240605 F52  0.1+  0.1+    240612 H01  0.0   0.2-    240612 I52  0.2+  0.0
240605 F52  0.1-  0.0     240612 H01  0.0   0.1-    240612 I93  0.1+  0.4+
240605 F52  0.2-  0.0     240612 H01  0.0   0.2-    240612 I93  0.0   0.2+
240612 G96  0.2+  0.1-    240612 H01  0.0   0.1-    240613 I93  0.3+  0.2+

Ephemeris:
2024 LC4                 a,e,i = 2.34, 0.63, 17                  q = 0.8739
Date    TT    R. A. (2000) Decl.     Delta      r    Elong.  Phase     V
2024 05 14    16 48 00.3 +23 44 45   0.4202  1.3329   132.9    33.7    23.2
...
2024 05 29    16 47 31.7 +31 16 53   0.2769  1.2001   126.8    42.5    22.3
...
2024 06 06    16 44 35.4 +37 03 32   0.2058  1.1324   120.2    50.7    21.7
...
2024 06 12    16 40 06.7 +43 41 17   0.1546  1.0840   112.5    59.9    21.3
2024 06 13    16 38 59.6 +45 09 49   0.1463  1.0762   110.8    61.9    21.2
2024 06 14    16 37 41.7 +46 47 52   0.1381  1.0685   109.0    64.0    21.1
...
2024 06 20    16 19 58.6 +62 06 17   0.09204 1.0241    92.4    82.5    20.8
...
2024 06 28    05 42 56.9 +63 13 04   0.06089 0.9712    40.7   137.0    23.4
...
2024 07 13    05 06 27.7 +01 43 27   0.1620  0.8990    40.2   133.1    24.9

A. U. Tomatic                (C) Copyright 2024 MPC           M.P.E.C. 2024-L128





More information about the Iaude mailing list